Theta_e
306 306 308 307 308 296 299 302 297 300 304 303 298 301 300 302 295 293 299 303 300 306 306 308 316 318 318 320 320 321 322 323 324 325 328 330 332 334 334 334 336 337 338 340 341 341 342 344 345 347 349 350 349 348 346 343 342 339 338 340 337 337 336
306 309 309 308 309 304 301 297 299 306 307 306 298 292 294 292 289 291 297 296 295 299 295 306 314 315 317 319 319 321 321 322 322 324 327 329 331 333 333 334 335 336 338 339 341 342 342 344 346 347 349 350 350 349 346 343 341 338 338 339 338 336 336
306 309 308 306 308 309 304 302 305 301 295 296 297 296 290 290 290 289 293 297 296 297 297 304 310 313 314 317 318 319 319 321 322 323 325 328 330 332 332 332 333 334 336 339 340 341 342 344 347 348 349 350 350 348 346 344 341 339 339 339 340 337 337
306 307 304 298 300 306 308 306 304 305 301 297 294 296 293 294 289 291 289 295 292 303 301 305 310 315 317 317 317 318 319 321 323 323 325 327 328 330 330 331 332 334 336 338 340 341 341 343 345 348 349 350 349 348 345 343 342 341 340 338 340 336 336
306 299 301 299 300 300 300 301 299 301 304 303 303 303 298 294 289 288 287 290 293 300 308 308 311 314 317 317 316 318 320 321 323 324 325 326 328 329 330 330 332 334 335 337 340 341 341 344 346 348 349 349 348 347 345 343 340 340 339 338 338 336 336
298 298 305 306 304 304 300 301 298 298 297 297 294 291 299 297 294 287 289 288 294 302 315 314 311 312 314 315 317 318 320 321 322 324 325 326 327 328 329 330 331 334 335 336 338 341 341 342 344 346 348 349 348 346 345 343 341 340 340 338 337 336 336
299 303 307 309 308 307 305 305 302 303 299 297 295 289 293 300 298 300 295 292 294 304 313 312 314 314 314 315 318 318 320 321 322 323 325 325 328 328 329 329 330 334 335 336 336 338 339 340 343 345 347 348 347 346 345 342 340 340 340 339 336 336 335
304 306 307 308 308 307 303 303 302 302 300 300 296 294 295 295 296 295 294 293 293 304 315 312 313 313 313 315 318 318 320 321 322 323 323 324 326 328 329 330 330 332 335 336 335 336 338 339 341 343 346 347 347 346 344 342 340 340 340 339 336 336 335
295 299 302 302 305 306 301 298 301 303 302 303 302 304 302 298 296 295 293 289 295 305 318 315 311 311 313 314 315 318 318 320 322 324 324 325 327 328 328 328 329 331 333 334 335 336 337 339 341 342 344 346 346 345 344 342 341 341 339 339 336 336 334
287 288 289 290 294 298 300 302 302 304 303 301 300 297 298 291 297 298 292 295 296 304 312 311 310 309 309 312 314 318 320 320 322 324 325 326 327 327 328 329 329 331 333 335 335 336 337 339 340 342 344 345 345 344 344 343 342 340 339 338 336 335 335
292 295 294 300 303 299 300 300 302 302 303 302 301 297 294 294 290 297 293 302 301 305 309 308 307 309 309 310 313 316 318 321 323 324 325 326 327 328 328 329 329 331 332 334 335 336 338 339 340 342 343 344 344 343 342 343 342 340 338 337 337 335 335
301 302 302 305 305 301 302 300 302 301 302 301 300 298 296 297 296 293 291 299 303 304 308 308 307 308 309 312 314 315 318 320 323 325 325 334 327 328 329 328 328 328 331 334 335 336 337 339 340 342 343 344 343 342 341 342 342 340 339 337 337 334 334
304 304 305 307 305 305 303 303 301 302 302 301 300 299 299 302 299 295 299 303 304 306 309 309 309 309 311 313 314 316 319 321 323 324 325 326 327 328 328 328 328 328 329 331 334 336 338 339 339 340 342 342 343 342 341 341 341 339 339 338 336 334 334
305 305 305 304 304 303 304 304 303 303 303 301 301 301 305 304 301 302 303 304 305 308 309 310 311 312 313 314 315 315 315 318 321 324 326 328 327 328 329 329 330 330 330 330 332 336 337 338 339 340 341 341 341 340 340 339 338 339 339 338 336 335 334
302 306 306 303 302 303 303 305 305 304 302 302 302 303 307 308 307 306 305 305 305 309 311 312 312 314 314 315 314 315 316 317 320 323 326 328 328 328 330 330 330 331 331 331 331 334 336 338 339 341 341 340 339 338 338 338 337 337 338 337 335 333 334
299 304 303 303 303 303 302 303 305 305 304 306 304 306 308 305 305 305 306 303 304 310 312 313 314 313 313 313 313 314 316 318 318 319 322 324 325 328 331 333 333 334 336 335 332 332 336 338 339 340 338 335 335 334 335 336 336 336 337 336 334 334 334
297 302 302 302 302 301 299 301 301 304 305 306 307 310 315 311 307 303 300 302 307 310 315 313 313 312 311 312 313 314 317 318 318 318 319 319 321 322 327 333 337 338 338 339 337 335 336 338 339 339 337 335 334 333 333 334 335 336 336 336 335 334 334
296 303 303 303 298 293 294 306 310 310 305 305 305 306 311 314 311 305 306 308 310 313 313 312 311 311 313 314 316 317 317 315 315 317 317 319 320 322 326 332 336 338 339 339 340 339 337 338 339 340 337 336 336 335 332 333 333 334 334 334 333 334 334
296 302 301 296 291 292 305 314 312 310 310 310 308 309 311 310 311 311 310 310 313 314 314 313 312 313 316 316 315 316 317 316 315 316 317 318 320 320 322 325 330 334 336 336 336 338 337 338 336 334 332 332 333 331 332 331 332 333 333 332 331 331 332
299 297 294 289 291 303 310 311 311 316 312 310 308 306 309 310 310 310 310 311 312 312 313 314 316 317 318 319 320 318 319 319 318 319 320 321 323 322 323 321 320 324 335 337 337 335 335 333 333 332 331 332 330 330 332 333 333 333 333 333 333 333 333
296 296 294 294 301 304 303 306 308 306 304 305 303 299 305 314 314 311 310 311 313 314 313 314 315 315 313 310 311 314 318 320 320 319 320 321 320 320 322 323 327 331 338 336 334 333 331 331 331 331 331 331 331 331 331 332 333 332 331 331 331 333 333
300 295 292 292 289 291 297 304 310 312 310 309 308 303 304 311 312 315 313 311 312 313 313 312 312 313 309 305 309 314 316 318 322 319 319 323 333 339 338 336 336 335 334 332 332 330 329 330 330 331 331 331 331 330 331 331 331 330 330 330 332 332 332
297 294 288 291 291 294 301 308 309 310 312 312 310 305 299 308 312 315 312 311 311 311 311 311 311 308 302 304 310 315 319 322 322 328 332 337 338 337 337 336 334 333 332 331 330 330 329 328 329 331 331 330 330 329 330 330 329 328 329 330 330 331 331
298 295 292 292 295 298 307 309 311 312 311 310 305 294 296 309 314 314 316 314 312 313 313 311 309 306 304 303 310 315 321 323 326 330 332 333 333 333 335 336 335 333 333 331 329 328 328 328 330 330 330 330 329 329 330 330 328 328 329 330 331 331 330
298 300 295 296 299 310 313 313 314 317 314 307 296 292 303 314 314 315 315 314 313 314 313 313 311 312 310 312 315 318 323 326 328 329 332 334 335 334 334 335 338 332 331 330 329 328 328 329 329 329 329 329 328 328 328 328 328 328 329 330 331 330 330
296 296 294 294 301 314 314 315 316 319 311 296 296 306 313 317 317 317 318 317 317 317 316 314 313 315 319 322 320 324 328 330 332 332 334 334 334 335 337 338 335 332 330 328 328 327 328 329 329 329 328 328 327 327 326 326 328 329 329 329 329 329 329
302 299 295 292 288 303 315 315 314 318 304 306 311 315 318 319 317 317 317 318 317 318 317 319 319 319 319 320 321 325 329 333 333 333 332 331 331 331 331 331 333 333 329 328 327 326 327 328 329 329 328 327 327 327 325 326 328 328 329 329 329 329 330
295 295 292 292 301 309 316 315 308 313 315 315 320 317 312 317 319 317 317 318 319 319 318 317 318 318 317 320 325 326 329 334 335 335 333 332 331 331 331 332 332 332 329 328 327 327 327 328 328 329 329 327 327 326 325 327 327 329 329 329 329 329 331
302 301 304 311 315 315 315 315 314 315 318 319 319 317 316 315 316 319 318 319 321 321 321 321 320 320 321 322 327 328 330 330 333 333 332 331 331 331 330 330 332 331 330 327 327 327 327 327 328 328 328 327 328 326 326 327 327 328 328 329 329 329 328
313 313 312 314 315 314 315 316 316 316 317 318 317 316 316 317 318 320 320 321 323 324 324 324 324 325 328 330 330 329 328 327 327 329 331 330 331 331 330 330 330 329 329 328 327 326 326 327 328 329 328 328 328 328 330 332 331 331 331 330 328 327 328
303 298 310 312 313 314 314 315 317 317 317 316 317 315 316 316 319 319 321 324 326 325 326 327 327 328 330 329 329 327 327 328 327 328 329 328 330 330 329 329 331 327 327 326 326 326 325 326 327 327 328 330 331 335 333 331 330 330 330 329 328 327 327
300 303 311 316 316 315 316 315 314 314 315 315 316 316 315 315 315 315 316 321 325 328 326 326 327 329 330 328 327 328 328 328 329 328 329 328 327 328 329 331 329 327 326 325 325 325 325 326 327 327 330 333 335 334 333 333 331 330 330 329 328 327 326
309 312 314 315 313 312 313 315 316 318 316 315 314 315 315 314 313 313 314 316 319 325 328 327 324 324 327 329 327 328 327 326 326 326 326 326 325 327 330 329 329 327 327 327 327 328 328 328 329 328 328 332 336 334 334 333 329 330 329 330 329 327 326
303 304 308 315 305 305 310 313 316 318 318 316 313 313 313 314 314 313 314 315 316 316 320 328 327 325 325 327 326 329 327 325 325 325 325 325 326 326 328 330 331 331 330 329 328 328 328 327 326 326 328 332 334 334 335 335 333 330 331 332 330 328 326
303 308 313 315 311 311 312 313 315 315 316 316 316 315 312 314 316 316 314 316 320 315 315 324 328 323 323 324 325 326 327 326 324 325 325 325 325 326 328 330 330 330 330 331 331 328 325 325 326 327 328 329 329 331 332 334 334 332 332 330 328 327 326
308 313 317 316 312 310 313 318 317 314 316 312 312 315 314 313 315 317 316 317 314 312 312 312 317 322 325 324 328 327 327 327 327 327 328 329 327 328 328 329 330 330 330 329 327 325 324 323 323 325 326 327 328 330 329 330 329 333 333 330 328 326 326
307 311 313 314 312 313 314 312 312 311 316 315 313 314 315 316 318 319 312 311 312 311 310 311 312 314 316 322 326 327 328 329 330 330 332 332 331 328 328 329 330 330 328 327 326 325 323 321 322 323 323 325 327 329 329 328 330 334 333 329 325 322 324
Wind_Speed
9 10 7 6 9 7 5 5 6 8 7 8 1 2 1 2 3 5 3 2 4 4 3 2 1 4 7 11 12 15 15 16 16 16 16 15 15 16 16 15 15 16 14 15 16 16 15 16 16 17 18 17 18 16 15 15 14 13 14 14 12 11 9
8 10 9 7 9 7 3 6 9 2 2 7 5 4 1 1 3 5 2 4 3 1 3 2 5 6 9 13 14 15 15 15 17 16 16 16 17 17 18 18 18 19 19 20 17 16 17 19 20 19 20 18 18 17 18 17 15 16 14 13 12 11 11
7 6 6 6 5 7 9 9 5 8 4 4 1 4 2 0 1 2 3 2 4 6 5 1 3 9 10 12 13 12 13 15 18 17 18 18 19 15 15 15 13 13 14 15 16 18 18 19 19 20 19 18 16 16 17 18 19 19 17 14 12 10 11
5 5 6 11 8 3 2 4 3 4 5 4 4 7 5 5 3 0 6 1 4 4 3 7 7 11 14 13 12 14 17 18 18 16 16 18 16 15 15 15 15 16 18 19 19 19 19 19 18 17 18 16 18 18 17 16 15 14 14 13 12 11 10
8 8 5 9 9 9 3 4 5 2 3 3 5 0 6 6 5 5 4 4 3 6 6 6 12 11 13 17 15 13 16 17 17 17 17 16 17 16 15 15 15 16 17 18 18 18 18 17 16 15 16 18 18 16 16 16 17 17 16 15 12 11 10
6 6 9 12 12 11 8 9 8 7 4 4 5 8 1 3 4 3 4 7 4 8 3 9 8 5 7 8 14 14 14 14 16 16 15 16 15 15 16 17 16 16 16 17 18 16 13 13 14 15 15 15 14 15 16 16 15 15 16 14 12 11 10
9 9 9 13 12 12 10 12 9 10 4 6 4 4 5 0 3 6 4 5 4 5 2 4 10 10 11 12 14 13 12 15 15 15 15 15 16 17 17 16 14 15 16 16 16 17 16 17 17 17 15 15 16 16 15 14 16 17 17 15 12 12 12
8 9 8 11 9 8 4 5 3 9 9 6 7 5 6 6 1 2 1 1 3 4 2 1 9 7 7 7 11 14 11 11 13 12 10 12 12 14 14 14 15 14 12 13 12 13 14 13 14 16 15 16 15 14 14 14 17 17 15 14 13 12 11
2 7 4 5 2 5 4 4 5 6 5 9 5 4 1 3 5 8 8 4 4 3 3 1 5 12 12 11 9 13 13 10 11 11 11 12 13 12 12 12 12 11 10 10 13 15 16 16 15 15 15 15 14 14 14 15 16 16 14 12 13 13 12
7 5 8 8 7 6 2 4 6 8 9 8 4 4 2 4 1 5 4 3 7 4 1 3 3 8 8 8 10 9 13 13 12 11 11 12 11 11 13 13 10 11 13 14 15 14 14 15 15 16 15 15 14 14 16 16 15 14 14 12 14 14 13
8 10 9 9 8 5 8 5 8 7 7 7 5 6 7 9 5 6 7 10 5 3 6 6 6 9 11 9 8 10 8 10 12 11 12 12 12 12 13 13 14 12 9 13 15 16 16 16 15 15 16 15 14 14 16 16 15 15 14 13 13 14 15
14 12 10 9 11 9 9 6 9 6 7 7 9 8 5 7 11 7 4 7 15 12 9 10 10 9 10 10 12 11 10 11 13 13 12 12 11 11 11 10 11 14 15 15 15 16 16 15 15 14 14 15 16 16 18 17 15 14 12 14 14 16 16
15 13 12 7 11 11 10 11 7 10 8 6 8 7 6 9 9 10 8 13 15 14 14 15 16 15 13 16 15 15 15 13 10 11 12 13 14 12 12 12 12 13 13 13 15 15 15 15 14 14 13 13 12 12 14 14 13 15 14 14 15 13 11
10 9 10 9 10 9 13 11 11 13 13 11 8 5 7 13 7 10 12 13 15 15 14 13 15 13 13 11 10 8 8 10 10 10 10 11 11 12 12 12 12 12 14 13 13 14 13 13 13 13 13 13 14 15 13 11 11 10 10 11 11 10 12
13 13 11 4 7 10 13 18 16 7 4 5 4 2 3 7 1 2 16 14 11 9 12 15 4 5 3 6 7 11 10 10 11 12 12 12 12 11 11 10 10 10 10 10 10 10 11 12 14 14 14 9 7 9 12 14 15 15 15 13 12 11 12
4 3 7 4 5 4 4 3 1 1 2 1 4 3 2 4 1 4 3 8 9 12 3 3 5 6 10 12 11 8 6 8 10 10 8 7 6 6 7 7 5 5 5 4 4 6 9 10 10 9 8 10 12 14 15 16 16 16 14 13 12 11 17
3 3 4 6 8 5 2 2 2 6 7 9 5 2 1 2 7 7 7 10 9 1 1 6 3 7 8 10 7 6 4 4 7 7 7 5 5 5 6 6 6 6 7 8 9 9 9 7 7 8 10 10 12 13 15 9 9 14 10 9 11 12 13
2 2 4 2 7 8 2 4 2 1 5 9 10 2 3 0 4 3 6 7 7 8 7 4 4 5 6 6 2 6 10 8 6 6 6 8 7 7 6 8 9 9 7 7 8 8 5 6 8 8 9 13 12 8 8 12 16 17 17 11 12 12 13
4 1 3 4 5 3 4 2 3 5 8 13 11 6 5 5 7 10 10 3 7 15 14 13 7 5 2 4 7 4 7 8 8 8 8 7 9 10 10 8 7 7 5 2 4 6 6 7 7 8 6 6 9 10 8 9 8 8 9 9 8 8 12
2 4 3 3 2 4 4 2 4 5 8 6 10 8 9 6 7 10 10 8 4 8 16 13 11 10 6 3 1 5 6 7 8 8 9 8 7 6 6 4 3 4 5 8 10 10 10 11 10 11 11 13 14 13 15 15 14 12 11 10 9 8 9
5 4 5 3 1 2 6 2 3 2 2 1 7 4 2 3 8 3 8 6 7 7 6 9 10 10 8 6 4 3 3 3 4 8 8 8 6 4 3 3 5 4 9 11 11 8 7 9 11 11 12 14 15 15 15 16 16 15 13 15 15 15 14
4 7 4 2 3 2 2 4 8 5 2 8 7 8 2 7 9 4 10 10 11 10 9 9 7 7 11 7 1 5 2 1 4 5 6 5 7 9 10 7 8 9 9 10 9 12 11 9 11 12 13 14 14 14 14 15 18 18 17 17 16 15 14
4 5 5 2 3 2 3 4 5 4 5 6 5 9 4 5 7 8 3 11 10 15 14 9 7 7 6 3 1 4 2 5 8 12 8 8 8 8 9 12 11 10 9 11 11 11 13 13 11 12 15 17 16 15 15 15 16 17 17 15 15 15 15
1 4 4 2 1 3 3 5 7 6 2 4 5 4 3 7 10 5 3 3 4 5 4 6 7 9 10 7 2 3 0 7 7 10 10 9 9 6 6 6 11 12 12 12 9 11 12 12 11 12 13 14 15 16 16 15 15 16 16 17 16 15 14
6 8 0 0 2 2 8 9 10 12 4 8 7 6 4 4 5 4 12 9 5 7 8 7 10 1 6 7 4 3 1 11 8 5 6 7 8 10 9 10 9 10 9 12 14 12 11 12 12 11 11 13 13 13 14 14 16 16 16 15 14 14 11
4 2 6 2 1 2 4 12 10 7 2 5 6 3 2 3 1 7 11 12 7 10 10 7 5 3 1 0 1 3 7 8 7 8 8 9 7 5 4 8 9 8 8 8 8 7 8 12 12 11 11 12 11 12 12 16 18 14 12 11 10 9 8
2 4 4 3 1 4 11 11 6 8 6 6 4 5 0 1 3 9 9 8 6 8 7 6 5 4 2 3 4 4 5 8 7 7 7 8 8 9 8 6 4 9 9 9 11 12 10 10 10 11 12 13 12 13 15 18 12 9 10 9 8 7 7
3 2 2 1 2 5 10 9 7 4 2 3 3 2 5 2 3 8 9 7 5 5 7 5 6 5 4 3 3 5 4 6 6 6 6 6 6 5 3 3 5 4 6 6 8 7 9 8 8 9 11 12 12 12 16 10 7 7 7 7 6 6 7
3 2 1 1 2 5 4 12 10 8 8 7 3 6 4 5 5 5 10 8 8 6 6 9 8 7 2 2 2 4 2 3 4 6 6 8 9 8 8 8 6 6 11 13 9 9 8 8 7 8 8 10 10 12 9 4 5 6 5 4 4 1 1
8 6 4 3 3 5 10 13 10 9 8 6 6 7 9 6 4 5 8 7 9 7 6 10 6 3 1 5 3 3 2 4 3 4 5 4 4 5 5 6 5 5 4 7 10 11 8 8 8 6 5 5 9 9 1 2 3 4 5 7 9 10 9
5 4 5 6 4 6 11 10 10 9 8 8 7 10 9 5 4 6 4 5 8 9 10 10 4 1 2 5 3 3 3 4 4 4 5 4 4 5 7 7 7 7 8 9 8 7 7 5 5 4 4 5 2 6 9 8 9 9 11 10 5 4 7
6 7 4 1 4 7 8 8 9 8 7 8 8 6 5 5 6 8 9 10 11 8 8 3 4 2 1 4 3 3 3 3 3 3 4 4 4 3 4 5 6 6 6 5 5 6 5 5 5 5 3 2 7 8 7 5 8 8 9 10 10 9 8
2 4 0 2 7 11 10 9 9 5 4 5 8 9 10 11 13 13 11 10 7 6 3 3 4 5 3 1 3 3 2 2 2 1 1 2 4 4 6 4 4 5 7 7 6 6 5 5 6 4 5 7 10 10 7 5 4 5 5 5 5 3 3
5 6 6 4 9 4 3 5 6 4 3 8 8 9 11 11 12 10 12 13 11 7 7 4 2 1 1 0 1 1 1 1 1 1 1 1 2 3 2 4 5 5 5 7 8 7 5 5 7 7 7 8 9 8 7 5 2 2 2 6 4 5 5
6 4 3 2 6 7 3 3 3 5 8 11 9 7 5 7 8 5 6 8 10 10 6 3 4 5 3 3 1 2 2 3 3 3 3 2 3 3 4 7 6 7 7 6 7 7 6 6 8 8 9 9 7 8 8 4 2 8 8 6 7 7 7
5 5 5 3 3 5 2 1 2 4 4 8 8 3 2 4 3 2 2 1 1 4 5 5 2 4 6 4 5 5 5 3 5 4 4 4 4 4 4 7 8 8 8 8 9 10 7 9 11 10 9 6 2 1 6 8 9 6 5 6 7 7 7
6 3 3 2 4 5 3 3 2 3 3 4 6 6 6 6 5 3 5 5 4 5 5 6 8 7 8 5 4 6 7 6 7 7 7 6 6 6 6 6 7 8 9 8 9 10 10 10 11 11 10 8 8 3 5 7 6 8 7 5 5 5 5
Wind_Direction
215 219 165 200 151 196 240 147 190 199 180 125 112 352 274 82 48 256 216 308 315 293 336 353 82 139 162 160 165 168 167 168 171 182 188 191 188 191 194 193 192 192 189 190 189 186 184 184 184 186 185 185 185 183 183 184 181 180 184 184 181 179 173
239 218 182 180 182 139 131 192 231 214 123 120 136 198 331 82 148 255 345 231 294 13 256 305 86 147 168 171 178 177 168 164 171 182 188 190 194 195 193 194 192 189 189 190 190 189 186 187 188 188 188 186 185 183 183 180 178 181 188 184 180 176 175
212 229 201 218 230 158 150 201 192 162 209 233 293 114 182 127 254 262 290 273 263 185 233 285 191 184 184 183 179 167 162 171 178 182 188 193 198 193 196 197 191 191 192 192 191 191 192 192 191 189 188 184 184 185 184 180 182 184 183 184 181 177 177
187 197 162 220 221 290 176 97 167 186 120 166 141 196 179 135 233 85 287 315 234 215 212 204 213 200 186 178 176 178 175 179 183 180 183 193 194 194 195 196 193 191 192 192 192 192 191 192 192 192 187 184 186 187 183 184 182 181 182 184 178 175 179
174 218 193 205 186 191 191 151 189 266 223 227 135 177 141 175 172 186 197 269 279 259 209 194 211 198 186 173 176 182 185 188 182 181 182 188 192 194 196 196 195 194 194 194 196 195 194 192 191 186 185 188 190 184 183 180 179 184 186 184 176 176 171
233 232 206 196 186 180 169 165 191 185 140 117 179 260 349 107 126 201 179 237 265 267 208 209 180 160 164 178 175 185 188 182 186 187 180 183 190 194 195 197 194 193 193 197 196 196 191 187 189 191 191 191 187 186 186 183 181 185 186 183 179 172 175
234 235 224 212 183 176 178 167 206 187 151 114 133 167 244 227 212 133 151 130 274 247 268 212 154 147 175 181 179 179 180 185 187 187 185 184 185 189 198 196 193 193 195 194 193 190 189 190 192 192 189 189 190 189 182 183 184 191 188 178 174 171 175
278 255 239 219 177 156 130 196 143 166 182 173 168 165 183 167 308 100 50 83 253 288 303 174 128 145 161 164 165 166 176 180 185 181 172 181 190 198 195 194 198 194 190 193 190 192 194 195 194 193 192 192 191 185 183 183 191 191 185 180 177 169 170
305 295 316 267 252 187 168 168 181 189 167 170 168 107 94 138 222 169 126 174 267 270 346 315 145 141 146 156 169 160 167 179 174 175 177 181 188 191 195 198 195 193 184 182 193 195 196 196 195 193 192 191 187 185 183 188 195 191 183 176 170 168 175
204 209 208 212 220 221 257 170 176 191 176 172 119 176 175 167 261 115 124 215 254 267 332 302 219 127 133 148 160 168 164 172 173 177 178 180 181 185 192 195 191 188 190 193 196 197 197 197 194 193 193 192 188 184 189 190 190 186 183 175 176 168 165
195 206 205 229 156 169 201 190 177 190 208 181 140 116 130 189 208 176 220 163 195 219 217 220 204 156 152 154 157 157 166 170 173 174 176 179 183 187 189 191 193 193 190 194 197 198 198 197 195 194 193 191 187 184 188 192 191 184 180 175 171 169 168
209 207 210 205 176 187 195 184 200 202 185 152 146 145 203 177 117 226 257 198 157 205 201 205 192 184 162 163 164 166 164 166 169 181 181 181 186 193 195 192 189 189 196 197 198 199 200 200 197 195 194 192 187 184 189 192 186 179 179 176 176 177 173
215 207 213 219 188 190 193 193 201 209 210 169 162 191 176 138 170 199 218 181 174 196 195 201 192 179 175 177 173 168 171 172 173 174 178 184 191 196 195 200 195 198 196 198 201 201 201 198 194 192 191 191 189 194 197 190 181 182 176 176 180 174 162
214 219 214 184 183 195 190 204 205 218 212 201 175 186 159 170 195 197 170 185 191 186 199 197 200 193 175 171 163 147 148 167 173 170 174 185 195 197 202 205 204 203 204 202 201 200 200 197 195 192 191 190 189 190 189 182 175 167 157 173 171 157 148
207 206 205 180 165 171 207 194 206 209 198 225 211 174 194 186 174 150 167 174 213 230 198 199 189 64 71 102 138 163 170 157 164 170 183 190 195 201 205 209 210 212 215 214 206 199 202 200 196 193 193 174 150 159 176 180 174 169 168 162 163 159 125
205 210 143 138 113 145 139 157 161 110 147 91 21 81 174 118 222 87 110 182 210 227 163 103 113 142 150 161 165 164 172 164 158 169 180 181 197 203 214 221 221 225 235 240 233 222 217 207 196 183 151 155 167 178 181 182 177 169 164 153 165 154 157
213 250 126 118 92 70 29 315 279 113 91 125 118 123 52 139 126 113 136 216 233 329 320 134 145 159 167 148 154 137 98 121 132 144 154 171 172 191 194 198 208 213 219 221 215 211 216 205 180 165 162 162 178 182 183 168 87 77 84 158 183 168 158
207 293 130 74 106 188 189 227 221 119 131 116 100 75 68 355 114 179 191 211 179 128 103 100 135 141 158 144 182 151 142 138 137 153 161 169 175 184 193 195 196 208 209 214 210 206 180 142 159 167 171 184 187 168 118 103 135 153 161 163 146 137 130
172 204 58 110 164 212 229 202 151 118 114 102 110 125 120 109 99 102 75 36 140 131 127 127 135 126 114 100 124 139 150 148 161 174 186 178 179 178 182 194 204 205 204 128 84 79 78 79 81 90 67 53 61 57 57 60 58 69 60 71 69 109 129
87 63 59 125 235 240 302 331 102 90 80 94 80 41 355 6 83 97 97 92 45 104 121 125 128 123 138 111 170 177 197 176 160 165 179 184 173 175 193 182 157 157 146 141 137 133 140 129 129 123 114 111 108 107 107 110 110 112 108 110 115 117 135
137 153 118 182 267 355 346 40 66 85 145 152 116 104 15 346 327 63 107 110 101 80 82 119 124 128 105 69 4 300 238 241 208 180 187 177 181 164 170 149 146 142 128 130 135 126 124 129 127 122 123 121 122 123 125 132 130 124 133 148 164 167 162
120 113 69 19 36 99 289 258 270 296 207 142 146 100 1 326 351 328 133 143 141 129 135 134 147 112 72 59 1 302 303 169 106 61 83 95 110 97 88 89 98 101 103 105 121 128 123 120 129 134 134 130 126 127 133 141 146 151 167 171 168 172 178
37 52 107 150 127 215 217 303 316 359 103 126 97 76 354 291 329 313 199 143 151 147 149 164 132 93 93 148 252 279 314 44 80 96 98 102 105 127 133 128 125 128 129 129 131 128 131 137 151 144 140 137 136 139 147 154 159 169 181 174 174 178 186
76 137 97 105 206 86 332 304 322 320 213 85 70 74 303 285 320 309 85 89 102 56 62 94 64 117 137 174 234 254 43 88 96 121 127 120 113 110 125 117 130 134 132 122 123 136 146 149 146 144 143 144 148 154 159 160 167 177 182 184 184 185 187
60 67 131 93 20 353 344 340 326 318 315 75 73 134 221 294 310 31 86 76 82 95 79 77 88 91 160 178 204 240 190 89 84 93 104 118 131 138 139 136 130 131 143 146 152 155 150 150 149 148 147 147 157 163 164 170 178 185 187 187 186 192 192
102 125 98 185 186 188 322 330 325 296 38 61 136 230 203 221 58 73 79 82 62 77 79 84 90 112 45 252 248 106 77 94 115 115 110 103 88 73 86 126 138 134 136 132 131 136 151 154 154 153 151 153 158 163 171 187 195 190 186 190 193 196 195
52 55 72 45 18 282 338 315 353 22 88 202 199 152 70 218 98 80 70 74 78 83 88 99 123 115 108 100 76 72 99 105 122 128 124 124 133 137 137 138 164 143 136 149 156 159 162 161 161 161 158 159 169 177 186 199 186 177 190 197 202 205 210
124 72 103 176 214 261 324 44 76 322 29 167 166 139 86 302 85 82 75 51 43 81 99 101 72 45 50 35 72 74 71 89 98 103 105 114 118 119 108 116 137 136 126 134 148 166 170 166 162 161 164 167 180 187 203 196 174 183 190 203 207 215 225
102 109 161 286 277 278 344 62 58 51 36 38 56 88 74 64 24 69 77 67 49 33 54 54 60 62 355 46 16 83 99 98 115 132 149 149 147 144 143 148 155 162 160 156 160 170 176 170 172 176 178 172 180 201 213 165 190 191 201 201 206 221 31
125 112 136 244 342 7 22 57 58 56 41 25 44 60 68 43 29 29 87 95 83 65 61 71 27 51 20 68 53 68 61 76 62 80 90 99 107 116 120 134 156 155 152 154 160 169 169 177 181 183 181 166 180 209 102 68 77 85 96 110 109 106 106
86 68 324 37 40 36 23 37 54 54 52 49 40 48 54 45 47 56 63 96 101 94 69 78 100 96 139 104 113 126 131 113 116 119 115 118 141 155 159 167 155 153 160 164 171 162 162 168 168 168 173 190 165 77 87 94 92 80 58 27 28 113 154
95 164 215 186 93 77 68 54 39 24 21 40 53 61 58 45 37 44 41 44 44 53 72 85 78 42 11 83 89 91 84 77 70 77 98 123 129 162 179 169 158 148 146 141 141 146 153 159 161 175 172 104 101 103 96 95 93 101 124 160 200 203 190
43 59 33 172 83 60 52 52 50 15 346 31 41 44 44 38 32 18 22 43 50 44 41 38 58 35 345 110 109 102 107 96 82 65 79 137 169 167 169 167 153 150 147 143 145 137 137 149 156 132 107 109 104 97 91 80 92 138 155 176 191 229 234
148 170 193 178 116 134 65 69 80 69 17 47 32 38 41 42 35 19 20 7 5 25 27 26 342 80 294 281 129 103 148 166 168 105 87 141 147 122 80 86 105 106 115 130 131 127 129 128 120 119 111 100 97 100 105 87 48 359 212 192 159 196 213
181 225 137 164 112 112 178 131 116 110 99 86 55 10 25 44 55 32 38 25 350 333 342 324 313 306 263 249 200 183 210 217 163 168 157 149 142 136 134 123 120 129 138 132 115 110 103 88 84 73 57 45 68 93 86 87 224 227 216 174 167 179 191
46 71 109 105 97 120 152 221 93 75 87 99 103 91 39 67 60 48 87 183 232 312 329 343 331 312 289 242 183 200 218 188 144 176 193 173 155 147 150 146 143 141 141 140 139 136 133 122 115 114 123 139 144 101 151 176 210 213 229 189 181 197 198
136 134 123 102 88 91 119 130 102 76 59 77 75 58 36 38 35 58 46 24 29 30 22 0 351 7 2 322 225 207 197 192 184 181 187 177 157 149 153 156 160 158 158 157 153 149 150 148 145 142 147 153 135 168 247 243 202 202 199 191 178 188 197